Regional Weather Roundup
Issued by NWS Northern Indiana

Home | Current Version | Previous Version | Graphics & Text | Print | Product List | Glossary On
Versions: 1 2 3 4 5 6 7 8 9 10 11 12 13 14 15 16 17 18 19 20 21 22 23 24 25 26 27 28 29 30 31 32 33 34 35 36 37 38 39 40 41 42 43 44 45 46 47 48 49 50
713
ASUS43 KIWX 310600
RWRIWX

KIWX WEATHER ROUNDUP
NATIONAL WEATHER SERVICE NORTHERN INDIANA
200 AM EDT SUN JUL 31 2016

NOTE: "FAIR" INDICATES FEW OR NO CLOUDS BELOW 12,000 FEET WITH NO
SIGNIFICANT WEATHER AND/OR OBSTRUCTIONS TO VISIBILITY.

* THESE STATIONS ARE NOT UNDER NWS QUALITY CONTROL. THEY ALSO MAY NOT
  REPORT WEATHER SUCH AS PRECIPITATION OR FOG.

INZ001>027-310700-
NORTHERN INDIANA

CITY           SKY/WX    TMP DP  RH WIND       PRES   REMARKS
KNOX*          CLEAR     64  63  94 CALM      29.99S
SOUTH BEND     CLEAR     65  64  97 N3        30.00S
6HR MIN TEMP:  65; 6HR MAX TEMP:  74;

GOSHEN         CLEAR     67  64  90 CALM      29.99S FOG
6HR MIN TEMP:  67; 6HR MAX TEMP:  78;

MONTICELLO*    CLEAR     65  62  87 CALM      29.98S
6HR MIN TEMP:  65; 6HR MAX TEMP:  76;

WARSAW*        PTCLDY    68  66  94 CALM      29.99S
ANGOLA*        CLEAR     66  57  72 CALM      29.98F
FORT WAYNE     MOCLDY    69  66  90 CALM      29.98S
6HR MIN TEMP:  69; 6HR MAX TEMP:  77;

PERU/GRISSOM   FOG       67  67 100 SW3       29.97S VSB 3/4
6HR MIN TEMP:  66; 6HR MAX TEMP:  75;


$$
INZ028>050-310700-
CENTRAL INDIANA

CITY           SKY/WX    TMP DP  RH WIND       PRES   REMARKS
LAFAYETTE      CLEAR     66  66 100 CALM      29.98S
6HR MIN TEMP:  66; 6HR MAX TEMP:  79;

KOKOMO*        CLEAR     66  61  82 CALM      29.99R
6HR MIN TEMP:  66; 6HR MAX TEMP:  81;

MUNCIE*        CLEAR     69  67  93 CALM      29.99R FOG
6HR MIN TEMP:  68; 6HR MAX TEMP:  81;

INDIANAPOLIS   PTCLDY    71  66  84 W6        29.99S
6HR MIN TEMP:  71; 6HR MAX TEMP:  81;


$$
MIZ043>046-050>051-056>058-064>065-071>073-077>080-310700-
SOUTHWEST LOWER MICHIGAN

CITY           SKY/WX    TMP DP  RH WIND       PRES   REMARKS
BATTLE CREEK   CLOUDY    65  65 100 NE6       30.01F
6HR MIN TEMP:  65; 6HR MAX TEMP:  69;

BENTON HARBOR  CLEAR     66  63  90 CALM      29.99F
6HR MIN TEMP:  66; 6HR MAX TEMP:  74;

COLDWATER*     CLEAR     65  65  98 NE3       29.99F
6HR MIN TEMP:  65; 6HR MAX TEMP:  73;

HILLSDALE*     PTCLDY    65  64  96 CALM      29.99S FOG
6HR MIN TEMP:  59; 6HR MAX TEMP:  87; 6HR PCP:  0.33;

HOLLAND        PTCLDY    66  62  87 E5        30.02F
6HR MIN TEMP:  66; 6HR MAX TEMP:  72;

GRAND RAPIDS   CLOUDY    66  62  87 NE8       30.02F
6HR MIN TEMP:  65; 6HR MAX TEMP:  70;

KALAMAZOO      CLOUDY    68  63  84 N7        30.00F
6HR MIN TEMP:  68; 6HR MAX TEMP:  72;

STURGIS*       CLEAR     66  65  99 NE5       29.98F FOG
6HR MIN TEMP:  66; 6HR MAX TEMP:  73;

THREE RIVERS*  FAIR      67  65  93 CALM      30.00S
6HR MIN TEMP:  67; 6HR MAX TEMP:  75;


$$
OHZ001>008-015>018-024>025-310700-
NORTHWEST OHIO

CITY           SKY/WX    TMP DP  RH WIND       PRES   REMARKS
DEFIANCE       CLOUDY    70  67  90 NE5       29.97F FOG
6HR MIN TEMP:  70; 6HR MAX TEMP:  79; 6HR PCP:  0.30;

FINDLAY        PTCLDY    70  66  87 W5        29.96R FOG
6HR MIN TEMP:  70; 6HR MAX TEMP:  82;

TOLEDO EXPRESS CLOUDY    69  69 100 N7        29.96S FOG
6HR MIN TEMP:  69; 6HR MAX TEMP:  74; 6HR PCP:  0.01;

TOLEDO METCALF PTCLDY    71  70  96 N3        29.97S
6HR MIN TEMP:  70; 6HR MAX TEMP:  75; 6HR PCP: TRACE;

LIMA           CLEAR     67  67 100 CALM      29.97S
6HR MIN TEMP:  67; 6HR MAX TEMP:  79;


$$
AND FOR LAKE MICHIGAN COASTAL AND OPEN LAKE BUOY OBSERVATIONS

STATION/POSITION TEMP    WIND        PRES    VSBY  WAVE
                 AIR SEA DIR/SP/G                  HT/PER
                 (F)     (DEG/KT/KT) (MB)    (MI)  (FT/S)
CALUMET HARBOR    72      40/  6/  8 1015.4S
MICHIGAN CITY     67      40/  4/  4   N/A
BURNS HARBOR      67      70/  4/  9 1016.3F
SAINT JOSEPH      67      30/  2/  3 1016.6R
SOUTH LAKE BUOY   71 73   80/ 10/ 10 1015.6          2/ 5
4 MI NW BRIDGMAN  65 66   40/  2/  4 1015.9R         1/ 4
MICHIGAN CITY     67 68   60/  4/  6   N/A           2/ 4

$$
&&




USA.gov is the U.S. government's official web portal to all federal, state and local government web resources and services.